Time,TemperatureF,DewpointF,PressureIn,WindDirection,WindDirectionDegrees,WindSpeedMPH,WindSpeedGustMPH,Humidity,HourlyPrecipIn,Conditions,Clouds,dailyrainin,SoftwareType,DateUTC
2013-02-22 00:00:00,49.0,44.1,30.17,NE,53,1.0,2.0,83,0.00,,CLR,0.00,VWS V14.01,2013-02-22 05:00:00,
2013-02-22 00:05:00,49.2,43.6,30.17,ENE,67,3.0,5.0,81,0.00,,CLR,0.00,VWS V14.01,2013-02-22 05:05:00,
2013-02-22 00:10:00,49.2,43.6,30.17,ENE,63,2.0,5.0,81,0.00,,CLR,0.00,VWS V14.01,2013-02-22 05:10:00,
2013-02-22 00:15:00,49.2,43.3,30.17,ENE,63,0.0,2.0,80,0.00,,CLR,0.00,VWS V14.01,2013-02-22 05:15:00,
2013-02-22 00:20:00,49.2,43.0,30.17,ENE,63,2.0,4.0,79,0.00,,CLR,0.00,VWS V14.01,2013-02-22 05:20:00,
2013-02-22 00:25:00,49.1,42.5,30.17,ENE,63,0.0,4.0,78,0.00,,CLR,0.00,VWS V14.01,2013-02-22 05:25:00,
2013-02-22 00:30:00,49.1,42.5,30.17,ENE,59,0.0,5.0,78,0.00,,CLR,0.00,VWS V14.01,2013-02-22 05:30:00,
2013-02-22 00:35:00,49.2,42.6,30.17,ENE,59,1.0,5.0,78,0.00,,CLR,0.00,VWS V14.01,2013-02-22 05:35:00,
2013-02-22 00:40:00,49.3,43.1,30.17,ENE,78,2.0,5.0,79,0.00,,CLR,0.00,VWS V14.01,2013-02-22 05:40:00,
2013-02-22 00:45:00,49.3,43.1,30.16,ESE,113,0.0,1.0,79,0.00,,CLR,0.00,VWS V14.01,2013-02-22 05:45:00,
2013-02-22 00:50:00,49.4,43.5,30.16,ENE,61,4.0,4.0,80,0.00,,CLR,0.00,VWS V14.01,2013-02-22 05:50:00,
2013-02-22 00:55:00,49.4,43.8,30.16,ENE,67,1.0,4.0,81,0.00,,CLR,0.00,VWS V14.01,2013-02-22 05:55:00,
2013-02-22 01:00:00,49.5,43.6,30.16,East,88,1.0,3.0,80,0.00,,CLR,0.00,VWS V14.01,2013-02-22 06:00:00,
2013-02-22 01:05:00,49.5,43.6,30.17,SE,126,0.0,5.0,80,0.00,,CLR,0.00,VWS V14.01,2013-02-22 06:05:00,
2013-02-22 01:10:00,49.5,43.6,30.17,NNE,17,1.0,5.0,80,0.00,,CLR,0.00,VWS V14.01,2013-02-22 06:10:00,
2013-02-22 01:15:00,49.5,43.6,30.18,NNE,30,0.0,0.0,80,0.00,,CLR,0.00,VWS V14.01,2013-02-22 06:15:00,
2013-02-22 01:20:00,49.4,43.8,30.17,NNE,33,2.0,3.0,81,0.00,,CLR,0.00,VWS V14.01,2013-02-22 06:20:00,
2013-02-22 01:25:00,49.2,43.6,30.17,NNE,33,1.0,3.0,81,0.00,,CLR,0.00,VWS V14.01,2013-02-22 06:25:00,
2013-02-22 01:30:00,49.1,43.5,30.17,East,98,0.0,1.0,81,0.00,,CLR,0.00,VWS V14.01,2013-02-22 06:30:00,
2013-02-22 01:35:00,48.9,43.7,30.18,ENE,75,1.0,4.0,82,0.00,,CLR,0.00,VWS V14.01,2013-02-22 06:35:00,
2013-02-22 01:40:00,48.9,43.3,30.18,ENE,75,0.0,4.0,81,0.00,,CLR,0.00,VWS V14.01,2013-02-22 06:40:00,
2013-02-22 01:45:00,48.6,43.0,30.18,ENE,75,0.0,0.0,81,0.00,,CLR,0.00,VWS V14.01,2013-02-22 06:45:00,
2013-02-22 01:50:00,48.1,42.9,30.17,ENE,75,0.0,0.0,82,0.00,,CLR,0.00,VWS V14.01,2013-02-22 06:50:00,
2013-02-22 01:55:00,47.6,42.7,30.17,ENE,75,0.0,1.0,83,0.00,,CLR,0.00,VWS V14.01,2013-02-22 06:55:00,
2013-02-22 02:00:00,47.0,42.1,30.18,ENE,75,1.0,1.0,83,0.00,,CLR,0.00,VWS V14.01,2013-02-22 07:00:00,
2013-02-22 02:05:00,46.5,41.9,30.18,ENE,75,1.0,2.0,84,0.00,,CLR,0.00,VWS V14.01,2013-02-22 07:05:00,
2013-02-22 02:10:00,46.1,41.5,30.18,ENE,75,1.0,2.0,84,0.00,,CLR,0.00,VWS V14.01,2013-02-22 07:10:00,
2013-02-22 02:15:00,45.6,41.0,30.18,ENE,75,0.0,0.0,84,0.00,,CLR,0.00,VWS V14.01,2013-02-22 07:15:00,
2013-02-22 02:20:00,45.3,40.8,30.18,ENE,75,0.0,2.0,84,0.00,,CLR,0.00,VWS V14.01,2013-02-22 07:20:00,
2013-02-22 02:25:00,45.0,40.2,30.18,ENE,58,1.0,3.0,83,0.00,,CLR,0.00,VWS V14.01,2013-02-22 07:25:00,
2013-02-22 02:30:00,44.6,39.8,30.18,ENE,58,0.0,2.0,83,0.00,,CLR,0.00,VWS V14.01,2013-02-22 07:30:00,
2013-02-22 02:35:00,44.3,39.5,30.18,ENE,58,0.0,2.0,83,0.00,,CLR,0.00,VWS V14.01,2013-02-22 07:35:00,
2013-02-22 02:40:00,44.0,38.9,30.18,ENE,58,0.0,3.0,82,0.00,,CLR,0.00,VWS V14.01,2013-02-22 07:40:00,
2013-02-22 02:45:00,43.8,38.7,30.19,ENE,58,1.0,3.0,82,0.00,,CLR,0.00,VWS V14.01,2013-02-22 07:45:00,
2013-02-22 02:50:00,43.6,38.5,30.18,ENE,59,1.0,3.0,82,0.00,,CLR,0.00,VWS V14.01,2013-02-22 07:50:00,
2013-02-22 02:55:00,43.5,38.7,30.18,ENE,59,0.0,3.0,83,0.00,,CLR,0.00,VWS V14.01,2013-02-22 07:55:00,
2013-02-22 03:00:00,43.4,38.6,30.19,NE,37,1.0,2.0,83,0.00,,CLR,0.00,VWS V14.01,2013-02-22 08:00:00,
2013-02-22 03:05:00,43.3,38.8,30.18,NE,37,0.0,2.0,84,0.00,,CLR,0.00,VWS V14.01,2013-02-22 08:05:00,
2013-02-22 03:10:00,43.2,38.7,30.18,East,80,1.0,3.0,84,0.00,,CLR,0.00,VWS V14.01,2013-02-22 08:10:00,
2013-02-22 03:15:00,43.1,38.9,30.19,NE,52,1.0,2.0,85,0.00,,CLR,0.00,VWS V14.01,2013-02-22 08:15:00,
2013-02-22 03:20:00,43.0,38.8,30.19,ENE,72,0.0,4.0,85,0.00,,CLR,0.00,VWS V14.01,2013-02-22 08:20:00,
2013-02-22 03:25:00,42.9,38.7,30.20,NE,51,1.0,4.0,85,0.00,,CLR,0.00,VWS V14.01,2013-02-22 08:25:00,
2013-02-22 03:30:00,42.8,38.6,30.20,NE,49,4.0,4.0,85,0.00,,CLR,0.00,VWS V14.01,2013-02-22 08:30:00,
2013-02-22 03:35:00,42.7,38.5,30.21,ENE,69,3.0,4.0,85,0.00,,CLR,0.00,VWS V14.01,2013-02-22 08:35:00,
2013-02-22 03:40:00,42.6,38.4,30.21,NE,55,2.0,4.0,85,0.00,,CLR,0.00,VWS V14.01,2013-02-22 08:40:00,
2013-02-22 03:45:00,42.5,38.6,30.22,NE,55,0.0,1.0,86,0.00,,CLR,0.00,VWS V14.01,2013-02-22 08:45:00,
2013-02-22 03:50:00,42.5,38.6,30.22,ENE,60,0.0,2.0,86,0.00,,CLR,0.00,VWS V14.01,2013-02-22 08:50:00,
2013-02-22 03:55:00,42.4,38.5,30.21,NE,46,1.0,5.0,86,0.00,,CLR,0.00,VWS V14.01,2013-02-22 08:55:00,
2013-02-22 04:00:00,42.4,38.5,30.20,ENE,60,1.0,3.0,86,0.00,,CLR,0.00,VWS V14.01,2013-02-22 09:00:00,
2013-02-22 04:05:00,42.5,38.3,30.21,ENE,60,0.0,3.0,85,0.00,,CLR,0.00,VWS V14.01,2013-02-22 09:05:00,
2013-02-22 04:10:00,42.4,38.2,30.22,ENE,72,0.0,4.0,85,0.00,,CLR,0.00,VWS V14.01,2013-02-22 09:10:00,
2013-02-22 04:15:00,42.4,38.2,30.22,ENE,67,2.0,3.0,85,0.00,,CLR,0.00,VWS V14.01,2013-02-22 09:15:00,
2013-02-22 04:20:00,42.3,38.1,30.22,ENE,78,2.0,4.0,85,0.00,,CLR,0.00,VWS V14.01,2013-02-22 09:20:00,
2013-02-22 04:25:00,42.3,38.1,30.22,ENE,78,1.0,4.0,85,0.00,,CLR,0.00,VWS V14.01,2013-02-22 09:25:00,
2013-02-22 04:30:00,42.2,38.0,30.22,NE,38,3.0,5.0,85,0.00,,CLR,0.00,VWS V14.01,2013-02-22 09:30:00,
2013-02-22 04:35:00,42.2,38.0,30.22,NE,41,3.0,5.0,85,0.00,,CLR,0.00,VWS V14.01,2013-02-22 09:35:00,
2013-02-22 04:40:00,42.1,37.9,30.22,NE,46,0.0,5.0,85,0.00,,CLR,0.00,VWS V14.01,2013-02-22 09:40:00,
2013-02-22 04:45:00,42.0,37.5,30.22,ENE,58,1.0,3.0,84,0.00,,CLR,0.00,VWS V14.01,2013-02-22 09:45:00,
2013-02-22 04:50:00,42.0,37.5,30.22,ENE,69,1.0,4.0,84,0.00,,CLR,0.00,VWS V14.01,2013-02-22 09:50:00,
2013-02-22 04:55:00,42.0,37.5,30.22,NE,53,2.0,4.0,84,0.00,,CLR,0.00,VWS V14.01,2013-02-22 09:55:00,
2013-02-22 05:00:00,41.9,37.4,30.23,ENE,68,3.0,5.0,84,0.00,,CLR,0.00,VWS V14.01,2013-02-22 10:00:00,
2013-02-22 05:05:00,41.9,37.1,30.23,NE,35,2.0,5.0,83,0.00,,CLR,0.00,VWS V14.01,2013-02-22 10:05:00,
2013-02-22 05:10:00,41.9,37.1,30.22,ENE,66,1.0,5.0,83,0.00,,CLR,0.00,VWS V14.01,2013-02-22 10:10:00,
2013-02-22 05:15:00,41.9,36.8,30.23,ENE,61,3.0,5.0,82,0.00,,CLR,0.00,VWS V14.01,2013-02-22 10:15:00,
2013-02-22 05:20:00,41.9,36.8,30.23,NE,52,3.0,7.0,82,0.00,,CLR,0.00,VWS V14.01,2013-02-22 10:20:00,
2013-02-22 05:25:00,41.9,36.8,30.24,North,360,1.0,7.0,82,0.00,,CLR,0.00,VWS V14.01,2013-02-22 10:25:00,
2013-02-22 05:30:00,42.1,36.7,30.23,ENE,58,2.0,4.0,81,0.00,,FEW085,0.00,VWS V14.01,2013-02-22 10:30:00,
2013-02-22 05:35:00,42.3,36.3,30.23,NE,44,2.0,5.0,79,0.00,,FEW085,0.00,VWS V14.01,2013-02-22 10:35:00,
2013-02-22 05:40:00,42.5,36.1,30.23,NNE,24,3.0,5.0,78,0.00,,FEW085,0.00,VWS V14.01,2013-02-22 10:40:00,
2013-02-22 05:45:00,42.7,35.3,30.24,NNE,26,3.0,4.0,75,0.00,,FEW085,0.00,VWS V14.01,2013-02-22 10:45:00,
2013-02-22 05:50:00,42.8,35.1,30.24,ENE,67,1.0,5.0,74,0.00,,FEW085,0.00,VWS V14.01,2013-02-22 10:50:00,
2013-02-22 05:55:00,42.9,34.5,30.24,ENE,65,3.0,5.0,72,0.00,,FEW085,0.00,VWS V14.01,2013-02-22 10:55:00,
2013-02-22 06:00:00,43.0,33.5,30.24,East,80,2.0,5.0,69,0.00,,OVC095,0.00,VWS V14.01,2013-02-22 11:00:00,
2013-02-22 06:05:00,43.2,33.0,30.23,ENE,57,2.0,8.0,67,0.00,,OVC095,0.00,VWS V14.01,2013-02-22 11:05:00,
2013-02-22 06:10:00,43.3,32.3,30.23,ENE,57,3.0,11.0,65,0.00,,OVC095,0.00,VWS V14.01,2013-02-22 11:10:00,
2013-02-22 06:15:00,43.4,31.7,30.24,ENE,59,3.0,6.0,63,0.00,,OVC095,0.00,VWS V14.01,2013-02-22 11:15:00,
2013-02-22 06:20:00,43.6,31.0,30.23,ESE,107,5.0,7.0,61,0.00,,OVC095,0.00,VWS V14.01,2013-02-22 11:20:00,
2013-02-22 06:25:00,43.7,30.7,30.23,ENE,66,3.0,10.0,60,0.00,,OVC095,0.00,VWS V14.01,2013-02-22 11:25:00,
2013-02-22 06:30:00,43.7,30.3,30.22,ESE,103,9.0,11.0,59,0.00,,OVC095,0.00,VWS V14.01,2013-02-22 11:30:00,
2013-02-22 06:35:00,43.8,30.0,30.22,NE,53,7.0,11.0,58,0.00,,OVC095,0.00,VWS V14.01,2013-02-22 11:35:00,
2013-02-22 06:40:00,43.8,30.0,30.21,ENE,76,9.0,11.0,58,0.00,,OVC095,0.00,VWS V14.01,2013-02-22 11:40:00,
2013-02-22 06:45:00,43.8,30.4,30.20,NNE,15,1.0,8.0,59,0.00,,OVC095,0.00,VWS V14.01,2013-02-22 11:45:00,
2013-02-22 06:50:00,43.8,31.2,30.20,East,101,5.0,10.0,61,0.00,,OVC095,0.00,VWS V14.01,2013-02-22 11:50:00,
2013-02-22 06:55:00,43.8,31.2,30.20,NE,40,2.0,10.0,61,0.00,,OVC095,0.00,VWS V14.01,2013-02-22 11:55:00,
2013-02-22 07:00:00,43.9,31.7,30.20,NE,46,4.0,9.0,62,0.00,,BKN075,0.00,VWS V14.01,2013-02-22 12:00:00,
2013-02-22 07:05:00,43.9,32.1,30.20,ENE,66,4.0,9.0,63,0.00,,BKN075,0.00,VWS V14.01,2013-02-22 12:05:00,
2013-02-22 07:10:00,43.9,32.5,30.20,East,93,2.0,9.0,64,0.00,,BKN075,0.00,VWS V14.01,2013-02-22 12:10:00,
2013-02-22 07:15:00,43.9,32.9,30.21,East,101,3.0,3.0,65,0.00,,BKN075,0.00,VWS V14.01,2013-02-22 12:15:00,
2013-02-22 07:20:00,43.9,32.5,30.22,East,88,5.0,5.0,64,0.00,,BKN075,0.00,VWS V14.01,2013-02-22 12:20:00,
2013-02-22 07:25:00,43.9,32.9,30.22,ENE,67,3.0,8.0,65,0.00,,BKN075,0.00,VWS V14.01,2013-02-22 12:25:00,
2013-02-22 07:30:00,44.0,33.0,30.21,ENE,67,2.0,9.0,65,0.00,,BKN075,0.00,VWS V14.01,2013-02-22 12:30:00,
2013-02-22 07:35:00,44.1,33.5,30.21,ENE,62,8.0,9.0,66,0.00,,BKN075,0.00,VWS V14.01,2013-02-22 12:35:00,
2013-02-22 07:40:00,44.2,34.0,30.21,ENE,65,3.0,10.0,67,0.00,,BKN075,0.00,VWS V14.01,2013-02-22 12:40:00,
2013-02-22 07:45:00,44.4,34.5,30.22,NE,55,2.0,4.0,68,0.00,,BKN075,0.00,VWS V14.01,2013-02-22 12:45:00,
2013-02-22 07:50:00,44.5,35.0,30.22,ENE,65,2.0,6.0,69,0.00,,BKN075,0.00,VWS V14.01,2013-02-22 12:50:00,
2013-02-22 07:55:00,44.7,35.5,30.22,ENE,74,5.0,6.0,70,0.00,,BKN075,0.00,VWS V14.01,2013-02-22 12:55:00,
2013-02-22 08:00:00,44.8,35.6,30.22,ENE,58,3.0,5.0,70,0.00,,OVC050,0.00,VWS V14.01,2013-02-22 13:00:00,
2013-02-22 08:05:00,44.9,36.1,30.23,NE,53,6.0,9.0,71,0.00,,OVC050,0.00,VWS V14.01,2013-02-22 13:05:00,
2013-02-22 08:10:00,45.0,36.2,30.23,NE,53,4.0,9.0,71,0.00,,OVC050,0.00,VWS V14.01,2013-02-22 13:10:00,
2013-02-22 08:15:00,45.0,36.2,30.23,East,80,5.0,7.0,71,0.00,,OVC050,0.00,VWS V14.01,2013-02-22 13:15:00,
2013-02-22 08:20:00,45.0,36.2,30.23,ENE,63,2.0,7.0,71,0.00,,OVC050,0.00,VWS V14.01,2013-02-22 13:20:00,
2013-02-22 08:25:00,45.0,35.8,30.22,ENE,69,2.0,9.0,70,0.00,,OVC050,0.00,VWS V14.01,2013-02-22 13:25:00,
2013-02-22 08:30:00,44.9,35.7,30.21,NE,44,6.0,6.0,70,0.00,,OVC050,0.00,VWS V14.01,2013-02-22 13:30:00,
2013-02-22 08:35:00,44.8,36.0,30.22,NE,52,0.0,8.0,71,0.00,,OVC050,0.00,VWS V14.01,2013-02-22 13:35:00,
2013-02-22 08:40:00,44.9,36.1,30.22,ENE,69,2.0,8.0,71,0.00,,OVC050,0.00,VWS V14.01,2013-02-22 13:40:00,
2013-02-22 08:45:00,44.9,36.1,30.23,ENE,59,4.0,6.0,71,0.00,,OVC050,0.00,VWS V14.01,2013-02-22 13:45:00,
2013-02-22 08:50:00,44.9,36.1,30.23,ENE,63,3.0,7.0,71,0.00,,OVC050,0.00,VWS V14.01,2013-02-22 13:50:00,
2013-02-22 08:55:00,44.9,36.4,30.22,ENE,64,2.0,7.0,72,0.00,,OVC050,0.00,VWS V14.01,2013-02-22 13:55:00,
2013-02-22 09:00:00,44.8,36.3,30.22,East,89,2.0,6.0,72,0.00,,OVC046,0.00,VWS V14.01,2013-02-22 14:00:00,
2013-02-22 09:05:00,44.8,37.0,30.22,East,83,3.0,8.0,74,0.00,,OVC046,0.00,VWS V14.01,2013-02-22 14:05:00,
2013-02-22 09:10:00,44.6,37.8,30.22,ENE,72,2.0,8.0,77,0.00,,OVC046,0.00,VWS V14.01,2013-02-22 14:10:00,
2013-02-22 09:15:00,44.5,38.1,30.20,NE,44,6.0,6.0,78,0.00,,OVC046,0.00,VWS V14.01,2013-02-22 14:15:00,
2013-02-22 09:20:00,44.2,38.4,30.19,East,88,6.0,8.0,80,0.01,,OVC046,0.01,VWS V14.01,2013-02-22 14:20:00,
2013-02-22 09:25:00,44.1,39.3,30.19,ENE,78,1.0,8.0,83,0.01,,OVC046,0.01,VWS V14.01,2013-02-22 14:25:00,
2013-02-22 09:30:00,44.2,40.0,30.19,South,169,0.0,3.0,85,0.01,,OVC046,0.01,VWS V14.01,2013-02-22 14:30:00,
2013-02-22 09:35:00,44.3,40.4,30.19,ESE,118,5.0,6.0,86,0.02,,OVC046,0.02,VWS V14.01,2013-02-22 14:35:00,
2013-02-22 09:40:00,44.5,40.9,30.20,ENE,64,2.0,9.0,87,0.03,,OVC046,0.03,VWS V14.01,2013-02-22 14:40:00,
2013-02-22 09:45:00,44.6,41.3,30.20,ESE,105,1.0,5.0,88,0.04,,OVC046,0.04,VWS V14.01,2013-02-22 14:45:00,
2013-02-22 09:50:00,44.7,41.4,30.21,ENE,78,7.0,11.0,88,0.05,,OVC046,0.05,VWS V14.01,2013-02-22 14:50:00,
2013-02-22 09:55:00,44.8,41.8,30.22,ESE,107,1.0,11.0,89,0.07,,OVC046,0.07,VWS V14.01,2013-02-22 14:55:00,
2013-02-22 10:00:00,44.8,42.0,30.22,ESE,107,5.0,8.0,90,0.09,,-RA,0.09,VWS V14.01,2013-02-22 15:00:00,
2013-02-22 10:05:00,44.7,42.2,30.21,ENE,65,1.0,8.0,91,0.10,,-RA,0.10,VWS V14.01,2013-02-22 15:05:00,
2013-02-22 10:10:00,44.8,42.3,30.22,NNE,30,2.0,8.0,91,0.11,,-RA,0.11,VWS V14.01,2013-02-22 15:10:00,
2013-02-22 10:15:00,44.9,42.4,30.22,ENE,69,2.0,7.0,91,0.12,,-RA,0.12,VWS V14.01,2013-02-22 15:15:00,
2013-02-22 10:20:00,45.0,42.8,30.21,ENE,71,3.0,7.0,92,0.12,,-RA,0.12,VWS V14.01,2013-02-22 15:20:00,
2013-02-22 10:25:00,45.1,42.9,30.22,South,185,1.0,7.0,92,0.12,,-RA,0.12,VWS V14.01,2013-02-22 15:25:00,
2013-02-22 10:30:00,45.2,43.0,30.22,ENE,61,3.0,3.0,92,0.12,,-RA,0.13,VWS V14.01,2013-02-22 15:30:00,
2013-02-22 10:35:00,45.3,43.1,30.21,ESE,110,3.0,5.0,92,0.12,,-RA,0.13,VWS V14.01,2013-02-22 15:35:00,
2013-02-22 10:40:00,45.5,43.3,30.20,ENE,69,3.0,5.0,92,0.12,,-RA,0.13,VWS V14.01,2013-02-22 15:40:00,
2013-02-22 10:44:00,45.6,43.4,30.18,ENE,68,3.0,10.0,92,0.10,,-RA,0.13,VWS V14.01,2013-02-22 15:44:00,
2013-02-22 10:49:00,45.9,44.0,30.17,ESE,114,4.0,10.0,93,0.10,,-RA,0.13,VWS V14.01,2013-02-22 15:49:00,
2013-02-22 10:54:00,46.2,44.0,30.19,NE,54,4.0,10.0,92,0.10,,-RA,0.13,VWS V14.01,2013-02-22 15:54:00,
2013-02-22 10:59:00,46.5,44.3,30.19,East,84,6.0,7.0,92,0.05,,-RA,0.13,VWS V14.01,2013-02-22 15:59:00,
2013-02-22 11:04:00,46.6,44.1,30.20,SE,136,1.0,8.0,91,0.05,,-RA,0.13,VWS V14.01,2013-02-22 16:04:00,
2013-02-22 11:09:00,46.6,44.1,30.19,ENE,57,3.0,9.0,91,0.05,,-RA,0.13,VWS V14.01,2013-02-22 16:09:00,
2013-02-22 11:14:00,46.6,44.1,30.19,ENE,65,1.0,4.0,91,0.02,,-RA,0.13,VWS V14.01,2013-02-22 16:14:00,
2013-02-22 11:19:00,46.6,44.1,30.19,ENE,60,11.0,11.0,91,0.02,,-RA,0.13,VWS V14.01,2013-02-22 16:19:00,
2013-02-22 11:25:00,46.7,44.5,30.18,ENE,70,2.0,11.0,92,0.02,,-RA,0.13,VWS V14.01,2013-02-22 16:25:00,
2013-02-22 11:29:00,47.0,44.8,30.18,ENE,63,4.0,7.0,92,0.00,,-RA,0.13,VWS V14.01,2013-02-22 16:29:00,
2013-02-22 11:34:00,47.2,44.7,30.19,ESE,121,3.0,9.0,91,0.00,,-RA,0.13,VWS V14.01,2013-02-22 16:34:00,
2013-02-22 11:39:00,47.4,44.9,30.19,ENE,77,7.0,10.0,91,0.00,,-RA,0.13,VWS V14.01,2013-02-22 16:39:00,
2013-02-22 11:44:00,47.7,45.2,30.18,ENE,69,3.0,4.0,91,0.00,,-RA,0.13,VWS V14.01,2013-02-22 16:44:00,
2013-02-22 11:49:00,48.0,45.5,30.17,SE,133,2.0,12.0,91,0.00,,-RA,0.13,VWS V14.01,2013-02-22 16:49:00,
2013-02-22 11:54:00,48.1,45.3,30.18,East,91,6.0,12.0,90,0.00,,-RA,0.13,VWS V14.01,2013-02-22 16:54:00,
2013-02-22 11:59:00,48.1,45.3,30.18,SE,130,2.0,5.0,90,0.00,,-RA,0.13,VWS V14.01,2013-02-22 16:59:00,
2013-02-22 12:04:00,48.1,45.3,30.18,East,82,2.0,9.0,90,0.00,,-RA,0.13,VWS V14.01,2013-02-22 17:04:00,
2013-02-22 12:09:00,48.1,45.3,30.18,ESE,122,4.0,9.0,90,0.00,,-RA,0.13,VWS V14.01,2013-02-22 17:09:00,
2013-02-22 12:14:00,48.1,45.3,30.18,ENE,63,4.0,9.0,90,0.00,,-RA,0.13,VWS V14.01,2013-02-22 17:14:00,
2013-02-22 12:19:00,48.1,45.3,30.18,NE,49,5.0,9.0,90,0.00,,-RA,0.13,VWS V14.01,2013-02-22 17:19:00,
2013-02-22 12:24:00,48.1,45.6,30.17,East,81,1.0,9.0,91,0.00,,-RA,0.13,VWS V14.01,2013-02-22 17:24:00,
2013-02-22 12:29:00,48.2,45.7,30.16,ESE,105,1.0,7.0,91,0.01,,-RA,0.14,VWS V14.01,2013-02-22 17:29:00,
2013-02-22 12:34:00,48.2,46.0,30.16,ENE,61,7.0,13.0,92,0.01,,-RA,0.14,VWS V14.01,2013-02-22 17:34:00,
2013-02-22 12:39:00,48.1,45.9,30.15,NE,43,3.0,13.0,92,0.01,,-RA,0.14,VWS V14.01,2013-02-22 17:39:00,
2013-02-22 12:44:00,48.2,46.0,30.15,ENE,76,4.0,4.0,92,0.01,,-RA,0.14,VWS V14.01,2013-02-22 17:44:00,
2013-02-22 12:49:00,48.2,46.0,30.15,East,89,5.0,11.0,92,0.01,,-RA,0.14,VWS V14.01,2013-02-22 17:49:00,
2013-02-22 12:54:00,48.2,46.0,30.15,ENE,76,3.0,11.0,92,0.01,,-RA,0.14,VWS V14.01,2013-02-22 17:54:00,
2013-02-22 12:59:00,48.3,46.1,30.14,ENE,70,4.0,5.0,92,0.01,,-RA,0.14,VWS V14.01,2013-02-22 17:59:00,
2013-02-22 13:04:00,48.3,46.1,30.13,ENE,59,3.0,13.0,92,0.01,,-RA,0.14,VWS V14.01,2013-02-22 18:04:00,
2013-02-22 13:09:00,48.4,46.2,30.13,ENE,67,3.0,13.0,92,0.01,,-RA,0.14,VWS V14.01,2013-02-22 18:09:00,
2013-02-22 13:14:00,48.4,46.2,30.13,NNE,29,4.0,7.0,92,0.01,,-RA,0.14,VWS V14.01,2013-02-22 18:14:00,
2013-02-22 13:19:00,48.5,46.3,30.13,ESE,113,4.0,10.0,92,0.01,,-RA,0.14,VWS V14.01,2013-02-22 18:19:00,
2013-02-22 13:24:00,48.6,46.4,30.13,South,184,4.0,10.0,92,0.01,,-RA,0.14,VWS V14.01,2013-02-22 18:24:00,
2013-02-22 13:29:00,48.7,46.5,30.12,NNE,30,3.0,7.0,92,0.00,,-RA,0.14,VWS V14.01,2013-02-22 18:29:00,
2013-02-22 13:34:00,48.8,46.6,30.12,SE,127,6.0,11.0,92,0.00,,-RA,0.14,VWS V14.01,2013-02-22 18:34:00,
2013-02-22 13:39:00,48.9,46.4,30.12,East,90,5.0,13.0,91,0.00,,-RA,0.14,VWS V14.01,2013-02-22 18:39:00,
2013-02-22 13:44:00,48.9,46.4,30.13,East,80,5.0,5.0,91,0.00,,-RA,0.14,VWS V14.01,2013-02-22 18:44:00,
2013-02-22 13:49:00,48.8,46.3,30.12,ENE,67,8.0,10.0,91,0.00,,-RA,0.14,VWS V14.01,2013-02-22 18:49:00,
2013-02-22 13:54:00,48.9,46.4,30.11,NE,56,4.0,10.0,91,0.00,,-RA,0.14,VWS V14.01,2013-02-22 18:54:00,
2013-02-22 13:59:00,48.9,46.4,30.11,NE,40,7.0,8.0,91,0.00,,-RA,0.14,VWS V14.01,2013-02-22 18:59:00,
2013-02-22 14:04:00,49.0,46.5,30.10,SE,136,3.0,9.0,91,0.00,,-RA,0.14,VWS V14.01,2013-02-22 19:04:00,
2013-02-22 14:09:00,49.0,46.5,30.10,NE,55,5.0,13.0,91,0.00,,-RA,0.14,VWS V14.01,2013-02-22 19:09:00,
2013-02-22 14:14:00,49.1,46.6,30.10,ESE,109,1.0,4.0,91,0.00,,-RA,0.14,VWS V14.01,2013-02-22 19:14:00,
2013-02-22 14:19:00,49.2,46.7,30.10,ESE,109,3.0,11.0,91,0.00,,-RA,0.14,VWS V14.01,2013-02-22 19:19:00,
2013-02-22 14:24:00,49.3,46.8,30.10,ENE,69,1.0,11.0,91,0.00,,-RA,0.14,VWS V14.01,2013-02-22 19:24:00,
2013-02-22 14:29:00,49.4,46.6,30.10,NE,51,5.0,5.0,90,0.00,,-RA,0.14,VWS V14.01,2013-02-22 19:29:00,
2013-02-22 14:34:00,49.5,46.7,30.10,NE,53,4.0,8.0,90,0.00,,-RA,0.14,VWS V14.01,2013-02-22 19:34:00,
2013-02-22 14:39:00,49.5,46.7,30.10,ENE,71,8.0,9.0,90,0.00,,-RA,0.14,VWS V14.01,2013-02-22 19:39:00,
2013-02-22 14:44:00,49.6,46.8,30.09,NE,40,3.0,15.0,90,0.00,,-RA,0.14,VWS V14.01,2013-02-22 19:44:00,
2013-02-22 14:49:00,49.7,46.9,30.10,ENE,60,7.0,15.0,90,0.00,,-RA,0.14,VWS V14.01,2013-02-22 19:49:00,
2013-02-22 14:54:00,49.9,47.1,30.10,ENE,74,2.0,15.0,90,0.00,,-RA,0.14,VWS V14.01,2013-02-22 19:54:00,
2013-02-22 14:59:00,49.9,47.1,30.10,ESE,117,2.0,5.0,90,0.00,,-RA,0.14,VWS V14.01,2013-02-22 19:59:00,
2013-02-22 15:04:00,50.0,47.2,30.10,ENE,61,2.0,10.0,90,0.00,,OVC013,0.14,VWS V14.01,2013-02-22 20:04:00,
2013-02-22 15:09:00,50.0,46.9,30.10,NE,55,3.0,10.0,89,0.00,,OVC013,0.14,VWS V14.01,2013-02-22 20:09:00,
2013-02-22 15:14:00,50.1,47.3,30.10,ENE,61,2.0,7.0,90,0.00,,OVC013,0.14,VWS V14.01,2013-02-22 20:14:00,
2013-02-22 15:19:00,50.1,47.3,30.10,ENE,63,2.0,11.0,90,0.00,,OVC013,0.14,VWS V14.01,2013-02-22 20:19:00,
2013-02-22 15:24:00,50.1,47.3,30.10,ENE,63,3.0,11.0,90,0.00,,OVC013,0.14,VWS V14.01,2013-02-22 20:24:00,
2013-02-22 15:29:00,50.2,47.4,30.10,ENE,75,3.0,8.0,90,0.00,,OVC013,0.14,VWS V14.01,2013-02-22 20:29:00,
2013-02-22 15:34:00,50.3,47.5,30.09,East,99,2.0,8.0,90,0.00,,OVC013,0.14,VWS V14.01,2013-02-22 20:34:00,
2013-02-22 15:39:00,50.3,47.5,30.09,SE,136,1.0,8.0,90,0.00,,OVC013,0.14,VWS V14.01,2013-02-22 20:39:00,
2013-02-22 15:44:00,50.4,47.6,30.09,ENE,71,4.0,9.0,90,0.00,,OVC013,0.14,VWS V14.01,2013-02-22 20:44:00,
2013-02-22 15:49:00,50.4,47.6,30.09,ENE,67,9.0,9.0,90,0.00,,OVC013,0.14,VWS V14.01,2013-02-22 20:49:00,
2013-02-22 15:54:00,50.5,47.7,30.09,ENE,60,4.0,10.0,90,0.00,,OVC013,0.14,VWS V14.01,2013-02-22 20:54:00,
2013-02-22 15:59:00,50.5,47.7,30.09,ENE,76,7.0,7.0,90,0.00,,OVC013,0.14,VWS V14.01,2013-02-22 20:59:00,
2013-02-22 16:04:00,50.6,47.8,30.08,ESE,113,5.0,11.0,90,0.00,,OVC013,0.14,VWS V14.01,2013-02-22 21:04:00,
2013-02-22 16:09:00,50.6,47.8,30.09,NE,49,6.0,11.0,90,0.00,,OVC013,0.14,VWS V14.01,2013-02-22 21:09:00,
2013-02-22 16:14:00,50.7,47.9,30.09,East,82,2.0,3.0,90,0.00,,OVC013,0.14,VWS V14.01,2013-02-22 21:14:00,
2013-02-22 16:19:00,50.8,48.0,30.09,NE,49,5.0,14.0,90,0.00,,OVC013,0.14,VWS V14.01,2013-02-22 21:19:00,
2013-02-22 16:24:00,50.9,48.1,30.08,SE,128,8.0,14.0,90,0.00,,OVC013,0.14,VWS V14.01,2013-02-22 21:24:00,
2013-02-22 16:29:00,50.9,48.1,30.08,ENE,61,7.0,7.0,90,0.00,,OVC013,0.14,VWS V14.01,2013-02-22 21:29:00,
2013-02-22 16:34:00,50.9,48.1,30.08,ENE,66,2.0,10.0,90,0.00,,OVC013,0.14,VWS V14.01,2013-02-22 21:34:00,
2013-02-22 16:39:00,50.9,48.1,30.08,East,82,2.0,10.0,90,0.00,,OVC013,0.14,VWS V14.01,2013-02-22 21:39:00,
2013-02-22 16:44:00,51.0,48.2,30.08,NE,55,4.0,7.0,90,0.00,,OVC013,0.14,VWS V14.01,2013-02-22 21:44:00,
2013-02-22 16:49:00,51.1,48.3,30.07,ESE,111,3.0,9.0,90,0.00,,OVC013,0.14,VWS V14.01,2013-02-22 21:49:00,
2013-02-22 16:54:00,51.2,48.7,30.08,NE,51,3.0,9.0,91,0.00,,OVC013,0.14,VWS V14.01,2013-02-22 21:54:00,
2013-02-22 16:59:00,51.2,48.7,30.07,NE,55,4.0,6.0,91,0.00,,OVC013,0.14,VWS V14.01,2013-02-22 21:59:00,
2013-02-22 17:04:00,51.3,48.8,30.07,NE,47,5.0,9.0,91,0.00,,OVC013,0.14,VWS V14.01,2013-02-22 22:04:00,
2013-02-22 17:09:00,51.4,48.9,30.07,East,100,0.0,9.0,91,0.00,,OVC013,0.14,VWS V14.01,2013-02-22 22:09:00,
2013-02-22 17:14:00,51.3,48.8,30.07,ENE,67,2.0,9.0,91,0.00,,OVC013,0.14,VWS V14.01,2013-02-22 22:14:00,
2013-02-22 17:19:00,51.3,48.8,30.08,ENE,57,3.0,9.0,91,0.00,,OVC013,0.14,VWS V14.01,2013-02-22 22:19:00,
2013-02-22 17:24:00,51.4,48.9,30.08,ENE,59,2.0,9.0,91,0.00,,OVC013,0.14,VWS V14.01,2013-02-22 22:24:00,
2013-02-22 17:29:00,51.4,49.2,30.08,East,87,1.0,2.0,92,0.01,,,0.15,VWS V14.01,2013-02-22 22:29:00,
2013-02-22 17:34:00,51.4,49.5,30.07,ENE,61,2.0,5.0,93,0.01,,,0.15,VWS V14.01,2013-02-22 22:34:00,
2013-02-22 17:39:00,51.4,49.5,30.07,NE,48,1.0,5.0,93,0.03,,,0.17,VWS V14.01,2013-02-22 22:39:00,
2013-02-22 17:44:00,51.3,49.3,30.07,ENE,76,3.0,3.0,93,0.04,,,0.18,VWS V14.01,2013-02-22 22:44:00,
2013-02-22 17:49:00,51.2,49.5,30.07,NE,34,1.0,3.0,94,0.04,,,0.18,VWS V14.01,2013-02-22 22:49:00,
2013-02-22 17:54:00,51.2,49.8,30.07,NE,34,1.0,3.0,95,0.04,,,0.18,VWS V14.01,2013-02-22 22:54:00,
2013-02-22 17:59:00,51.2,49.8,30.08,NE,34,0.0,2.0,95,0.04,,,0.18,VWS V14.01,2013-02-22 22:59:00,
2013-02-22 18:04:00,51.1,49.7,30.08,NE,34,0.0,2.0,95,0.04,,,0.18,VWS V14.01,2013-02-22 23:04:00,
2013-02-22 18:09:00,50.8,49.4,30.08,NNE,28,0.0,4.0,95,0.04,,,0.18,VWS V14.01,2013-02-22 23:09:00,
2013-02-22 18:14:00,50.4,49.0,30.08,NE,44,1.0,2.0,95,0.05,,,0.19,VWS V14.01,2013-02-22 23:14:00,
2013-02-22 18:19:00,50.1,48.7,30.07,NE,44,2.0,2.0,95,0.05,,,0.19,VWS V14.01,2013-02-22 23:19:00,
2013-02-22 18:24:00,49.9,48.5,30.08,NE,44,1.0,3.0,95,0.05,,,0.19,VWS V14.01,2013-02-22 23:24:00,
2013-02-22 18:29:00,49.7,48.3,30.08,NE,44,0.0,2.0,95,0.05,,,0.19,VWS V14.01,2013-02-22 23:29:00,
2013-02-22 18:34:00,49.6,48.5,30.08,NE,44,2.0,2.0,96,0.05,,,0.19,VWS V14.01,2013-02-22 23:34:00,
2013-02-22 18:39:00,49.5,48.4,30.08,NNW,348,0.0,4.0,96,0.05,,,0.19,VWS V14.01,2013-02-22 23:39:00,
2013-02-22 18:44:00,49.4,48.3,30.07,NE,52,0.0,1.0,96,0.01,,,0.19,VWS V14.01,2013-02-22 23:44:00,
2013-02-22 18:49:00,49.4,48.3,30.08,NE,34,1.0,3.0,96,0.01,,,0.19,VWS V14.01,2013-02-22 23:49:00,
2013-02-22 18:54:00,49.3,48.2,30.08,NE,34,1.0,3.0,96,0.01,,,0.19,VWS V14.01,2013-02-22 23:54:00,
2013-02-22 18:59:00,49.2,48.1,30.08,North,350,1.0,2.0,96,0.01,,,0.19,VWS V14.01,2013-02-22 23:59:00,
2013-02-22 19:04:00,49.2,48.1,30.08,North,350,2.0,3.0,96,0.02,,,0.20,VWS V14.01,2013-02-23 00:04:00,
2013-02-22 19:09:00,49.2,48.1,30.08,NE,56,1.0,3.0,96,0.02,,,0.20,VWS V14.01,2013-02-23 00:09:00,
2013-02-22 19:14:00,49.1,48.0,30.07,NNE,33,2.0,2.0,96,0.02,,,0.20,VWS V14.01,2013-02-23 00:14:00,
2013-02-22 19:19:00,49.0,47.9,30.07,NNE,33,2.0,3.0,96,0.03,,,0.21,VWS V14.01,2013-02-23 00:19:00,
2013-02-22 19:24:00,48.9,47.8,30.07,NNE,33,2.0,3.0,96,0.03,,,0.21,VWS V14.01,2013-02-23 00:24:00,
2013-02-22 19:29:00,48.8,48.0,30.07,NNE,33,1.0,3.0,97,0.02,,-RA,0.21,VWS V14.01,2013-02-23 00:29:00,
2013-02-22 19:34:00,48.7,47.9,30.07,NNE,33,3.0,4.0,97,0.02,,-RA,0.21,VWS V14.01,2013-02-23 00:34:00,
2013-02-22 19:39:00,48.7,47.9,30.07,NNE,33,0.0,4.0,97,0.02,,-RA,0.21,VWS V14.01,2013-02-23 00:39:00,
2013-02-22 19:44:00,48.7,47.9,30.07,NNE,33,0.0,1.0,97,0.02,,-RA,0.21,VWS V14.01,2013-02-23 00:44:00,
2013-02-22 19:49:00,48.7,47.9,30.07,NNE,33,1.0,1.0,97,0.02,,-RA,0.21,VWS V14.01,2013-02-23 00:49:00,
2013-02-22 19:54:00,48.7,47.9,30.07,NNE,33,1.0,3.0,97,0.02,,-RA,0.21,VWS V14.01,2013-02-23 00:54:00,
2013-02-22 19:59:00,48.7,47.9,30.08,NNE,33,0.0,0.0,97,0.02,,-RA,0.21,VWS V14.01,2013-02-23 00:59:00,
2013-02-22 20:04:00,48.7,47.9,30.07,NNE,33,0.0,2.0,97,0.02,,-RA,0.21,VWS V14.01,2013-02-23 01:04:00,
2013-02-22 20:09:00,48.8,48.0,30.07,NNE,33,0.0,3.0,97,0.02,,-RA,0.21,VWS V14.01,2013-02-23 01:09:00,
2013-02-22 20:14:00,48.8,48.0,30.08,NE,46,1.0,2.0,97,0.01,,-RA,0.21,VWS V14.01,2013-02-23 01:14:00,
2013-02-22 20:19:00,48.8,48.0,30.07,NE,46,1.0,2.0,97,0.01,,-RA,0.21,VWS V14.01,2013-02-23 01:19:00,
2013-02-22 20:24:00,48.8,48.0,30.07,NE,46,0.0,2.0,97,0.01,,-RA,0.21,VWS V14.01,2013-02-23 01:24:00,
2013-02-22 20:29:00,48.8,48.0,30.07,NE,46,0.0,0.0,97,0.00,,-RA,0.21,VWS V14.01,2013-02-23 01:29:00,
2013-02-22 20:34:00,48.8,48.0,30.06,NNE,26,2.0,4.0,97,0.00,,-RA,0.21,VWS V14.01,2013-02-23 01:34:00,
2013-02-22 20:39:00,48.7,47.9,30.07,NNE,26,2.0,4.0,97,0.00,,-RA,0.21,VWS V14.01,2013-02-23 01:39:00,
2013-02-22 20:44:00,48.7,47.9,30.07,NE,48,1.0,3.0,97,0.00,,-RA,0.21,VWS V14.01,2013-02-23 01:44:00,
2013-02-22 20:49:00,48.7,47.9,30.07,NE,40,1.0,3.0,97,0.00,,-RA,0.21,VWS V14.01,2013-02-23 01:49:00,
2013-02-22 20:54:00,48.6,47.8,30.07,NE,40,2.0,3.0,97,0.00,,-RA,0.21,VWS V14.01,2013-02-23 01:54:00,
2013-02-22 20:59:00,48.7,47.9,30.07,NE,40,2.0,2.0,97,0.00,,-RA,0.21,VWS V14.01,2013-02-23 01:59:00,
2013-02-22 21:04:00,48.7,47.9,30.07,NE,40,0.0,3.0,97,0.00,,-RA,0.21,VWS V14.01,2013-02-23 02:04:00,
2013-02-22 21:09:00,48.7,47.9,30.07,NE,37,1.0,3.0,97,0.00,,-RA,0.21,VWS V14.01,2013-02-23 02:09:00,
2013-02-22 21:14:00,48.6,47.8,30.06,WNW,302,1.0,1.0,97,0.00,,-RA,0.21,VWS V14.01,2013-02-23 02:14:00,
2013-02-22 21:19:00,48.6,48.1,30.06,NNW,329,0.0,3.0,98,0.00,,-RA,0.21,VWS V14.01,2013-02-23 02:19:00,
2013-02-22 21:24:00,48.6,48.1,30.07,ENE,66,0.0,4.0,98,0.00,,-RA,0.21,VWS V14.01,2013-02-23 02:24:00,
2013-02-22 21:29:00,48.6,48.1,30.07,ENE,66,2.0,2.0,98,0.00,,-RA,0.21,VWS V14.01,2013-02-23 02:29:00,
2013-02-22 21:34:00,48.5,47.7,30.07,NNW,340,1.0,3.0,97,0.00,,-RA,0.21,VWS V14.01,2013-02-23 02:34:00,
2013-02-22 21:39:00,48.5,47.7,30.06,NE,51,2.0,3.0,97,0.00,,-RA,0.21,VWS V14.01,2013-02-23 02:39:00,
2013-02-22 21:44:00,48.5,47.7,30.06,NNE,27,2.0,2.0,97,0.00,,-RA,0.21,VWS V14.01,2013-02-23 02:44:00,
2013-02-22 21:49:00,48.5,47.7,30.06,WNW,297,1.0,3.0,97,0.00,,-RA,0.21,VWS V14.01,2013-02-23 02:49:00,
2013-02-22 21:54:00,48.5,48.0,30.06,North,360,1.0,3.0,98,0.00,,-RA,0.21,VWS V14.01,2013-02-23 02:54:00,
2013-02-22 21:59:00,48.4,47.9,30.06,North,360,2.0,2.0,98,0.00,,-RA,0.21,VWS V14.01,2013-02-23 02:59:00,
2013-02-22 22:04:00,48.4,47.9,30.06,NNE,33,0.0,3.0,98,0.00,,-RA,0.21,VWS V14.01,2013-02-23 03:04:00,
2013-02-22 22:09:00,48.4,47.9,30.06,NW,316,0.0,4.0,98,0.00,,-RA,0.21,VWS V14.01,2013-02-23 03:09:00,
2013-02-22 22:14:00,48.3,47.8,30.07,NNW,346,4.0,4.0,98,0.00,,-RA,0.21,VWS V14.01,2013-02-23 03:14:00,
2013-02-22 22:19:00,48.3,47.8,30.06,North,355,0.0,4.0,98,0.00,,-RA,0.21,VWS V14.01,2013-02-23 03:19:00,
2013-02-22 22:24:00,48.2,47.7,30.06,North,360,0.0,4.0,98,0.00,,-RA,0.21,VWS V14.01,2013-02-23 03:24:00,
2013-02-22 22:29:00,48.2,47.7,30.06,North,360,1.0,1.0,98,0.00,,-RA,0.21,VWS V14.01,2013-02-23 03:29:00,
2013-02-22 22:34:00,48.2,47.7,30.06,North,360,1.0,2.0,98,0.00,,-RA,0.21,VWS V14.01,2013-02-23 03:34:00,
2013-02-22 22:39:00,48.1,47.6,30.05,North,360,2.0,2.0,98,0.00,,-RA,0.21,VWS V14.01,2013-02-23 03:39:00,
2013-02-22 22:44:00,48.1,47.6,30.05,North,360,2.0,2.0,98,0.00,,-RA,0.21,VWS V14.01,2013-02-23 03:44:00,
2013-02-22 22:49:00,48.0,47.5,30.05,North,360,0.0,3.0,98,0.00,,-RA,0.21,VWS V14.01,2013-02-23 03:49:00,
2013-02-22 22:54:00,48.0,47.5,30.05,North,360,1.0,3.0,98,0.00,,-RA,0.21,VWS V14.01,2013-02-23 03:54:00,
2013-02-22 22:59:00,48.1,47.6,30.04,North,360,1.0,1.0,98,0.00,,-RA,0.21,VWS V14.01,2013-02-23 03:59:00,
2013-02-22 23:04:00,48.0,47.5,30.04,North,360,0.0,2.0,98,0.00,,-RA,0.21,VWS V14.01,2013-02-23 04:04:00,
2013-02-22 23:09:00,48.0,47.5,30.04,North,360,1.0,2.0,98,0.00,,-RA,0.21,VWS V14.01,2013-02-23 04:09:00,
2013-02-22 23:14:00,47.9,47.4,30.04,North,360,0.0,1.0,98,0.00,,-RA,0.21,VWS V14.01,2013-02-23 04:14:00,
2013-02-22 23:19:00,47.9,47.4,30.04,North,360,1.0,4.0,98,0.00,,-RA,0.21,VWS V14.01,2013-02-23 04:19:00,
2013-02-22 23:24:00,47.9,47.4,30.03,North,360,0.0,4.0,98,0.00,,-RA,0.21,VWS V14.01,2013-02-23 04:24:00,
2013-02-22 23:29:00,47.9,47.4,30.02,North,360,1.0,2.0,98,0.00,,OVC002,0.21,VWS V14.01,2013-02-23 04:29:00,
2013-02-22 23:34:00,47.9,47.4,30.03,North,360,0.0,2.0,98,0.00,,OVC002,0.21,VWS V14.01,2013-02-23 04:34:00,
2013-02-22 23:39:00,47.9,47.4,30.03,North,350,0.0,4.0,98,0.00,,OVC002,0.21,VWS V14.01,2013-02-23 04:39:00,
2013-02-22 23:44:00,47.8,47.3,30.03,North,350,0.0,1.0,98,0.00,,OVC002,0.21,VWS V14.01,2013-02-23 04:44:00,
2013-02-22 23:49:00,47.7,47.2,30.03,NNW,333,1.0,3.0,98,0.00,,OVC002,0.21,VWS V14.01,2013-02-23 04:49:00,
2013-02-22 23:54:00,47.6,47.1,30.03,NW,311,2.0,4.0,98,0.00,,OVC002,0.21,VWS V14.01,2013-02-23 04:54:00,
2013-02-22 23:59:00,47.4,46.9,30.03,NW,311,0.0,0.0,98,0.00,,OVC002,0.00,VWS V14.01,2013-02-23 04:59:00,